Other Public Products
Issued by NWS Grand Forks, ND

Home | Current Version | Previous Version | Graphics & Text | Print | Product List | Glossary On
Versions: 1 2 3 4 5 6 7 8 9 10 11 12 13 14 15 16 17 18 19 20 21 22 23 24 25 26 27 28 29 30 31 32 33 34 35 36 37 38 39 40 41 42 43 44 45 46 47 48 49 50
000
FPUS83 KFGF 060210
OPUFGF
PRAIRIE TO PINES WEATHER ROUNDUP
NATIONAL WEATHER SERVICE EASTERN NORTH DAKOTA/GRAND FORKS ND
900 PM CDT SUN JUL 05 2015

 **SATELLITE DATA USED TO AUGMENT SKY COVER AT AUTOMATED STATIONS**
 *****  WEATHER ACROSS EASTERN NORTH DAKOTA  *****

CITY           SKY/WX    TMP DP  RH WIND       PRES   REMARKS
GRAND FORKS    MOCLDY    69  62  78 N10       29.85R HAZE
GRAND FORKS AF CLOUDY    67  60  77 N7        29.86R HAZE
GRAND CITY NWS   N/A     68 N/A N/A N12         N/A
BUXTON         NOT AVBL
DEVILS LAKE    CLOUDY    66  55  68 NW6       29.90R
FARGO          MOCLDY    73  66  78 N16       29.79F
WAHPETON ARPT  PTCLDY    73  64  73 N9G17     29.79S
$$

 *****  WEATHER ACROSS CENTRAL AND WESTERN NORTH DAKOTA  *****

CITY           SKY/WX    TMP DP  RH WIND       PRES   REMARKS
JAMESTOWN      CLOUDY    70  65  84 W7        29.91R HAZE
BISMARCK       CLOUDY    71  62  73 NW7       29.97R HAZE
MINOT          CLOUDY    67  55  65 NW9       29.97R HAZE
MINOT AFB      MOCLDY    70  62  76 NW9       29.96R
GARRISON         N/A     66  60  81 NW6       29.98R
WILLISTON      CLOUDY    71  49  45 N9        30.03S
DICKINSON      CLOUDY    66  56  70 N5        30.03R HAZE
HETTINGER      CLOUDY    63  56  78 NW7       30.05S HAZE
$$

 *****  OTHER OBSERVATIONS NORTHEAST NORTH DAKOTA  *****

CITY           SKY/WX    TMP DP  RH WIND       PRES   REMARKS
WALHALLA       FAIR      66  66 100 MISG      29.87S FOG
LANGDON        FAIR      66  61  82 NW7       29.90S FOG
CAVALIER       FAIR      68  59  73 NW7       29.86S HAZE
GRAFTON        FAIR      66  63  88 NW6       29.87S FOG
CANDO          FAIR      64  59  82 NW6       29.93R FOG
FORT TOTTEN      N/A     68  56  64 N5        29.95S
ROLLA          FAIR      63  57  82 NW9       29.95R HAZE
RUGBY          NOT AVBL
 ***** THE ABOVE OBSERVATIONS ARE NON NWS ARE NOT QUALITY
        CONTROLLED AND MAY MIS-REPORT RAIN FOR SNOW...
$$

 *****  OTHER OBSERVATIONS SOUTHEAST NORTH DAKOTA *****

CITY           SKY/WX    TMP DP  RH WIND       PRES   REMARKS
COOPERSTOWN    NOT AVBL
VALLEY CITY    MOCLDY    68  68 100 NW12      29.87S
OAKES            N/A     73  68  83 NW17G24   29.84R
GWINNER        FAIR      73  64  73 N13       29.82R
SHEYENNE NWR     N/A     74  65  72 N9        29.95S
BUFFALO        NOT AVBL
WYNDMERE         N/A     73  66  78 N6          N/A
 ***** THE ABOVE OBSERVATIONS ARE NON NWS ARE NOT QUALITY
       CONTROLLED AND MAY MIS-REPORT RAIN FOR SNOW...
$$

  *****  WEATHER ACROSS NORTHERN MINNESOTA  *****

CITY           SKY/WX    TMP DP  RH WIND       PRES   REMARKS
FLAG ISLAND    MOCLDY    70  61  73 NW13      29.81S HAZE
WARROAD        PTCLDY    66  63  88 NW7       29.83S FOG
ROSEAU         MOCLDY    68  63  83 NW7       29.84S HAZE
HALLOCK        CLOUDY    66  63  88 NW5       29.86R FOG
THF RVR FALLS  PTCLDY    70  64  83 NW12      29.84S
HALSTAD        NOT AVBL
FOSSTON        PTCLDY    66  63  88 N10       29.82S
BAUDETTE       PTCLDY    66  62  87 NW5       29.81R
WASKISH        MOCLDY    72  66  83 NW13G20   29.81R
CROOKSTON      MOCLDY    70  66  88 N9        29.85R FOG
$$
  *****  WEATHER ACROSS CENTRAL AND WEST MINNESOTA  *****

CITY           SKY/WX    TMP DP  RH WIND       PRES   REMARKS
BEMIDJI        PTCLDY    69  66  92 NW7       29.80S
PARK RAPIDS    CLOUDY    73  67  81 N14       29.79R
WADENA         TSTM      73  68  83 CALM      29.77R
DETROIT LAKES  PTCLDY    72  64  78 N16G22    29.81S
MOORHEAD       PTCLDY    72  66  83 N12       29.79F
FERGUS FALLS   CLEAR     73  66  78 N17G26    29.77R
ELBOW LAKE     FAIR      78  71  78 NW13      29.77R
MORRIS MN      CLOUDY    70  66  88 E25       29.79R VSB 3/4
STAPLES        PTCLDY    79  68  69 S6        29.74F THUNDER
WHEATON        PTCLDY    75  68  78 N18G24    29.78R
$$
  *****  WEATHER ELSEWHERE ACROSS MINNESOTA  *****

CITY           SKY/WX    TMP DP  RH WIND       PRES   REMARKS
DULUTH         MOCLDY    78  69  73 S8        29.77F THUNDER
INTRNTL FALLS  CLEAR     69  63  81 NW12      29.77S
ELY            TSTM      77  66  69 SW8       29.75R
CLOQUET        MOCLDY    79  66  65 S6G17     29.76F
BRAINERD       PTCLDY    80  69  69 S8        29.74F
HIBBING        TSTM      67  64  90 NW9       29.75R FOG
ALEXANDRIA     CLOUDY    71  70  96 N8        29.79R
SAINT CLOUD    CLEAR     81  72  74 S7        29.76F
MINNEAPOLIS    MOCLDY    82  68  62 S14G20    29.79F
$$

  *****  WEATHER ACROSS SOUTH DAKOTA  *****

CITY           SKY/WX    TMP DP  RH WIND       PRES   REMARKS
SIOUX FALLS    CLOUDY    82  73  74 S13       29.75F
BROOKINGS      PTCLDY    81  72  74 S12       29.77R
WATERTOWN      TSTM      70  66  87 NE24G31   29.78R FOG
HURON          MOCLDY    83  74  74 VRB7      29.74R
SISSETON         N/A     78  68  71 N13       29.78R
ABERDEEN       CLOUDY    76  65  68 N17       29.81R
MITCHELL       PTCLDY    83  75  77 S8        29.71R HX  90
PIERRE         CLOUDY    73  64  73 N22G31    29.85R
MOBRIDGE       LGT RAIN  68  66  93 N13       29.90R FOG
RAPID CITY     CLOUDY    62  60  93 N22G33    30.02R
$$

  *****  SOME WEATHER IN NEARBY STATES *****

CITY           SKY/WX    TMP DP  RH WIND       PRES   REMARKS
GLASGOW MT     MOCLDY    65  53  65 W13       30.09S
GREAT FALLS MT LGT RAIN  50  48  93 N9        30.24R FOG
CHEYENNE WY    CLOUDY    61  59  93 N16G28    30.10R
SCOTTSBLUFF NE LGT RAIN  66  32  28 NW17G28   29.93S
OMAHA NE       MOCLDY    85  75  72 SE18      29.78F HX  93
DES MOINES IA  PTCLDY    81  69  67 SE13      29.87F
DAVENPORT IA   PTCLDY    75  65  70 SE7       29.98S
CHICAGO IL     CLEAR     74  60  61 S7        30.01S
EAU CLAIRE WI  PTCLDY    77  65  66 S15G22    29.85F
LA CROSSE WI   PTCLDY    78  65  63 SE9       29.89F
$$

  *****  SOME NATIONAL WEATHER *****

CITY           SKY/WX    TMP DP  RH WIND       PRES   REMARKS
LA GUARDIA NY  MOCLDY    75  64  68 S9        30.13R
RALEIGH NC     LGT RAIN  70  68  94 CALM      30.12F
ATLANTA GA     MOCLDY    76  67  73 SW5       30.13R
NEW ORLEANS LA CLOUDY    75  66  73 NE9       30.14F
OKLAHOMA CITY  MOCLDY    82  71  69 S10       29.92R
ALBUQUERQUE NM CLOUDY    72  57  59 W8        30.11R
SALT LAKE CITY PTCLDY    86  58  38 N14       29.97R
LOS ANGELES CA CLOUDY    65  60  84 W12       29.96S
BOISE ID       PTSUNNY   80  52  37 S9        29.93F
SEATTLE WA     MOSUNNY   89  46  22 NW7       29.84R
$$

*** WEATHER ACROSS MANITOBA...SASKATCHEWAN AND ONTARIO ***
                ***ONTARIO***

CITY           SKY/WX    TMP DP  RH WIND       PRES   REMARKS
GERALDTON      CLOUDY    66  61  82 S8        29.78F HAZE
THUNDER BAY    CLOUDY    61  59  94 NE9       29.76F
SIOUX LOOKOUT  CLOUDY    61  59  94 N6        29.77R SMOKE
TORONTO        CLOUDY    75  61  60 SW7       30.09S
BIG TROUT LK   CLOUDY    57  55  94 CALM      29.61  FOG
PICKLE LAKE    LGT RAIN  61  59  94 VRB3      29.71S FOG
DRYDEN         CLOUDY    61  59  94 W8        29.79R FOG
KENORA         MOCLDY    64  61  88 W3        29.82S SMOKE
$$
                *** MANITOBA***

CITY           SKY/WX    TMP DP  RH WIND       PRES   REMARKS
BRANDON        MOCLDY    63  54  72 NW8       29.94R
DAUPHIN        PTCLDY    59  50  72 N9G17     29.99R
ISLAND LAKE    NOT AVBL
PILOT MOUND      N/A     63  55  77 NW9         N/A
THE PAS        PTCLDY    55  43  62 N16G24    30.02R
THOMPSON       MOCLDY    48  41  76 NW15G22   29.94R
WINNIPEG       MOCLDY    63  57  82 NW7       29.87R SMOKE
LYNN LAKE      CLEAR     55  39  54 NE5       30.03R
CHURCHILL      LGT RAIN  41  39  93 N28G35    29.82S FOG
GILLAM         DRIZZLE   45  43  93 N18G26    29.77
$$
                ***SASKATCHEWAN***

CITY           SKY/WX    TMP DP  RH WIND       PRES   REMARKS
ESTEVAN        CLOUDY    64  50  59 N9        30.02S
KINDERSLEY     CLOUDY    59  48  67 N8        30.15R
LLOYDMINSTER   MOSUNNY   61  43  51 CALM      30.15S
PRINCE ALBERT  PTSUNNY   61  45  55 N5        30.08R
REGINA         MOCLDY    63  50  63 N14       30.06R



USA.gov is the U.S. government's official web portal to all federal, state and local government web resources and services.